Regional Weather Roundup
Issued by NWS

Home | Current Version | Previous Version | Graphics & Text | Print | Product List | Glossary On
Versions: 1 2 3 4 5 6 7 8 9 10 11 12 13 14 15 16 17 18 19 20 21 22 23 24 25 26 27 28 29 30 31 32 33 34 35 36 37 38 39 40 41 42 43 44 45 46 47 48 49 50
000
ASUS43 KLSX 221159
RWRMO

WEATHER SUMMARY FOR MISSOURI
NATIONAL WEATHER SERVICE SPRINGFIELD MO
700 AM CDT FRI AUG 22 2014

NOTE: "FAIR" INDICATES FEW OR NO CLOUDS BELOW 12,000 FEET WITH NO
       SIGNIFICANT WEATHER AND/OR OBSTRUCTIONS TO VISIBILITY.
       CURRENT SKY AND/OR WEATHER CONDITIONS ARE NOT AVAILABLE FOR
       CHILLICOTHE AND FARMINGTON.

MOZ001>031-035>038-043-044-053-054-221300-
...NORTHERN AND WESTERN MISSOURI...

CITY           SKY/WX    TMP DP  RH WIND       PRES   REMARKS
KANSAS CTY INT MOCLDY    77  71  82 CALM      29.93R
6HR MIN TEMP:  76; 6HR MAX TEMP:  82;

KANSAS C DTWN  CLEAR     80  70  71 S8        29.91R
6HR MIN TEMP:  80; 6HR MAX TEMP:  85;

LEE`S SUMMIT   CLEAR     76  70  82 S8        29.93R
6HR MIN TEMP:  76; 6HR MAX TEMP:  82;

ST JOSEPH      MOCLDY    75  73  93 NW5       29.92R
6HR MIN TEMP:  75; 6HR MAX TEMP:  81;

KIRKSVILLE     LGT RAIN  75  73  93 CALM      30.01R FOG
6HR MIN TEMP:  74; 6HR MAX TEMP:  82; 6HR PCP:  0.49;


$$
MOZ066>068-077>081-088>096-101>105-221300-
...SOUTHWEST MISSOURI...

CITY           SKY/WX    TMP DP  RH WIND       PRES   REMARKS
SPRINGFIELD    CLEAR     74  70  87 S10       30.01S
6HR MIN TEMP:  73; 6HR MAX TEMP:  78;

JOPLIN         CLEAR     78  69  73 S14       29.99R
6HR MIN TEMP:  78; 6HR MAX TEMP:  80;


$$
MOZ032>034-039>042-045>050-055>058-069>072-221300-
...CENTRAL MISSOURI...

CITY           SKY/WX    TMP DP  RH WIND       PRES   REMARKS
COLUMBIA       PTCLDY    74  71  91 S6        29.97R
6HR MIN TEMP:  73; 6HR MAX TEMP:  78;

JEFFERSON CITY CLEAR     75  70  84 E3        29.97R
6HR MIN TEMP:  74; 6HR MAX TEMP:  81;

ROLLA          CLEAR     73  69  87 S10       29.99R
6HR MIN TEMP:  72; 6HR MAX TEMP:  78; 6HR PCP: TRACE;

SEDALIA        PTCLDY    78  70  76 SW13      29.96R
6HR MIN TEMP:  77; 6HR MAX TEMP:  81;

OSAGE BEACH    CLEAR     73  68  83 S5        29.98S

$$
MOZ051-052-059>065-221300-
...EAST CENTRAL MISSOURI...

CITY           SKY/WX    TMP DP  RH WIND       PRES   REMARKS
ST LOUIS INTL  PTCLDY    80  70  71 W9        29.98R
6HR MIN TEMP:  79; 6HR MAX TEMP:  85;

SPIRIT OF STL  PTCLDY    74  69  85 W3        29.97R
6HR MIN TEMP:  74; 6HR MAX TEMP:  81;

ST CHARLES     CLEAR     72  69  90 S3        29.96R
6HR MIN TEMP:  71; 6HR MAX TEMP:  80;


$$
MOZ072>076-082>087-097>100-106>115-221300-
...SOUTH CENTRAL AND SOUTHEAST MISSOURI...

CITY           SKY/WX    TMP DP  RH WIND       PRES   REMARKS
CAPE GIRARDEAU CLEAR     72  70  93 S6        30.03R
6HR MIN TEMP:  71; 6HR MAX TEMP:  79;

FARMINGTON     CLEAR     73  70  88 SW6       30.05R
6HR MIN TEMP:  73; 6HR MAX TEMP:  79;

POPLAR BLUFF   CLEAR     73  70  90 S3        30.03R
6HR MIN TEMP:  72; 6HR MAX TEMP:  77;

WEST PLAINS    CLEAR     73  69  87 SW5       30.06R
6HR MIN TEMP:  71; 6HR MAX TEMP:  76;


$$



USA.gov is the U.S. government's official web portal to all federal, state and local government web resources and services.